Regional Weather Roundup
Issued by NWS Bismarck, ND

Home | Current Version | Previous Version | Text Only | Print | Product List | Glossary On
Versions: 1 2 3 4 5 6 7 8 9 10 11 12 13 14 15 16 17 18 19 20 21 22 23 24 25 26 27 28 29 30 31 32 33 34 35 36 37 38 39 40 41 42 43 44 45 46 47 48 49 50
000
ASUS43 KBIS 222310
RWRBIS

NWR BROADCAST TEXT
NATIONAL WEATHER SERVICE BISMARCK ND
500 PM CST SUN JAN 22 2017

NOTE: "FAIR" INDICATES FEW OR NO CLOUDS BELOW 12,000 FEET WITH NO
SIGNIFICANT WEATHER AND/OR OBSTRUCTIONS TO VISIBILITY.


CITY           SKY/WX    TMP DP  RH WIND       PRES   REMARKS
WILLISTON      CLOUDY    30  25  81 W9        29.81R
MINOT          CLOUDY    32  29  88 W10       29.76R
MINOT AFB      CLOUDY    31  27  86 NW12      29.76R
BISMARCK       CLOUDY    32  28  85 W13       29.82R
DICKINSON      CLOUDY    27  23  85 NW18      29.79R WCI  14
GARRISON         N/A     31  27  85 W10       29.78R
HETTINGER ARPT CLOUDY    26  22  84 W20       29.83S WCI  12
JAMESTOWN      CLOUDY    32  29  88 NW14      29.76R
CARRINGTON     CLOUDY    32  30  93 NW12      29.79R
HAZEN          CLOUDY   N/A N/A N/A NW12      29.83R
MANDAN         CLOUDY    28  28 100 W14       29.81S WCI  17
RUGBY            N/A     30  28  93 NW16      29.76S WCI  19
STANLEY        MOCLDY    28  30 100 W13       29.78R WCI  18
TIOGA          CLOUDY    28  28 100 W13       29.79R WCI  18
WATFORD CITY   CLOUDY    28  27  93 W10       29.82R WCI  19
$$

CITY           SKY/WX    TMP DP  RH WIND       PRES   REMARKS
GRAND FORKS    CLOUDY    33  28  81 W5        29.75R
GRAND FORKS AF CLOUDY    32  28  86 NW5       29.75R
DEVILS LAKE    MOCLDY    28  24  85 NW10      29.75R WCI  19
FARGO          CLOUDY    35  31  85 W7        29.76S
CAVALIER       CLOUDY    34  32  93 W6        29.74R FOG
GRAFTON        CLOUDY    34  34 100 CALM      29.76R FOG
GWINNER        CLOUDY    34  34 100 W8        29.79R
ROLLA            N/A    N/A N/A N/A MISG        N/A
$$

CITY           SKY/WX    TMP DP  RH WIND       PRES   REMARKS
ABERDEEN       CLOUDY    30  25  81 NW13      29.83R WCI  20
MOBRIDGE       CLOUDY    30  25  81 NW12      29.82R
BUFFALO          N/A     28  23  81 NW8       29.76S WCI  20
RAPID CITY     FAIR      38  24  57 S3        29.83F
GLASGOW        CLOUDY    31  25  78 W8        29.81R
SIDNEY         CLOUDY    31  25  78 W10       29.84R
WOLF POINT     CLOUDY    32  25  75 W7        29.83R
GLENDIVE       CLOUDY    28  25  88 W9        29.85R WCI  19
MILES CITY     CLOUDY    25  21  85 SE5       29.85S WCI  19
BAKER          CLOUDY    23  21  92 W9        29.84S FOG     WCI  13
$$

CITY           SKY/WX    TMP DP  RH WIND       PRES   REMARKS
BILLINGS       FAIR      36  22  56 SW3       29.75F
GREAT FALLS    FAIR      28  23  81 NE14      29.71F WCI  17
REGINA         FLURRIES  25  21  86 NW15      29.76R WCI  12
ESTEVAN        CLOUDY    27  27 100 W14       29.76S WCI  15
$$




USA.gov is the U.S. government's official web portal to all federal, state and local government web resources and services.